Location: Unspecified
(0.0000°N, 0.0000°E)
Time: 17:37:09
(UTC+00:00)

CZ-3C DEB - Pass Details

Date: 11 March 2026
Orbit: 717 x 38360 km, 18.5° (Epoch: 25 March)

Event Time Altitude Azimuth Distance (km) Brightness Sun altitude
Exits shadow 01:26:11 37° 98° (E) 4,471 ? -70.6°
Maximum altitude 10:17:22 48° 66° (ENE) 26,845 ? 61.6°
Drops below altitude 10° 11:54:53 10° 90° (E) 11,501 ? 84.8°
Sets 12:00:50 0° 93° (E) 10,896 ? 85.7°
